Middletown, RI

9:43 PM EST on February 07, 2016 (GMT -0500)
Newport State

Weather History for KUUU - July, 2013

Change the Weather History Date:

Sunday, July 28, 2013

  Actual Average Record
Temperature  
Mean Temperature 74 °F -  
Max Temperature 80 °F 77 °F 90 °F (1976)
Min Temperature 69 °F 64 °F 53 °F (2001)
Cooling Degree Days 10    
Growing Degree Days 24 (Base 50)    
Moisture  
Dew Point 69 °F    
Average Humidity 91    
Maximum Humidity 100    
Minimum Humidity 64    
Precipitation  
Precipitation 0.02 in - - ()
Sea Level Pressure  
Sea Level Pressure 29.98 in    
Wind  
Wind Speed 5 mph (ESE)    
Max Wind Speed 9 mph    
Max Gust Speed -    
Visibility 7 miles    
Events Fog , Rain    
Averages and records for this station are not official NWS values.
T = Trace of Precipitation, MM = Missing Value Source: NWS Daily Summary

Daily Weather History Graph

Daily Weather History Graph

Search for Another Location

Airport or City:

Trip Planner

Search our weather history database for the weather conditions in past years. The results will help you decide how hot, cold, wet, or windy it might be!

Date:

Astronomy

Jul. 28, 2013 Rise Set
Actual Time 5:36 AM EDT 8:06 PM EDT
Civil Twilight 5:04 AM EDT 8:38 PM EDT
Nautical Twilight 4:25 AM EDT 9:17 PM EDT
Astronomical Twilight 3:40 AM EDT 10:01 PM EDT
Moon 11:20 PM EDT (7/28) 12:21 PM EDT (7/28)
Length of Visible Light 15h 33m
Length of Day
14h 30m
Waning Gibbous, 61% of the Moon is Illuminated
Jul 28
Waning Gibbous
Jul 29
Last Quarter
Aug 6
New
Aug 14
First Quarter
Aug 20
Full

Hourly Weather History & Observations

Time (EDT) Temp. Heat Index Dew Point Humidity Pressure Visibility Wind Dir Wind Speed Gust Speed Precip Events Conditions
12:32 AM 69.8 °F - 68.0 °F 94% 29.99 in 10.0 mi East 3.5 mph - N/A   Overcast
12:53 AM 70.0 °F - 66.9 °F 90% 29.98 in 10.0 mi East 5.8 mph - N/A   Overcast
1:21 AM 69.8 °F - 68.0 °F 94% 29.99 in 10.0 mi East 4.6 mph - 0.00 in   Overcast
1:53 AM 70.0 °F - 68.0 °F 93% 29.97 in 10.0 mi East 5.8 mph - 0.00 in   Overcast
2:38 AM 69.8 °F - 69.8 °F 100% 29.98 in 9.0 mi East 4.6 mph - 0.00 in Rain Light Rain
2:53 AM 70.0 °F - 69.1 °F 97% 29.97 in 7.0 mi SE 3.5 mph - 0.00 in   Overcast
3:53 AM 70.0 °F - 70.0 °F 100% 29.95 in 4.0 mi East 4.6 mph - N/A   Overcast
4:27 AM 69.8 °F - 69.8 °F 100% 29.95 in 2.0 mi Calm Calm - 0.02 in Rain Rain
4:39 AM 71.6 °F - 69.8 °F 94% 29.95 in 3.0 mi Calm Calm - 0.02 in Rain Rain
4:53 AM 71.1 °F - 70.0 °F 96% 29.95 in 6.0 mi Calm Calm - 0.02 in Rain Light Rain
5:30 AM 69.8 °F - 69.8 °F 100% 29.96 in 2.5 mi NNW 4.6 mph - 0.00 in   Overcast
5:42 AM 69.8 °F - 69.8 °F 100% 29.96 in 1.2 mi NNW 4.6 mph - 0.00 in   Overcast
5:53 AM 69.1 °F - 68.0 °F 96% 29.96 in 1.2 mi North 3.5 mph - 0.00 in   Overcast
6:07 AM 69.8 °F - 68.0 °F 94% 29.96 in 0.5 mi NNW 5.8 mph - N/A Fog Fog
6:53 AM 69.1 °F - 68.0 °F 96% 29.97 in 0.5 mi North 6.9 mph - N/A Fog Fog
7:53 AM 69.1 °F - 69.1 °F 100% 29.97 in 0.2 mi Variable 4.6 mph - N/A Fog Fog
8:53 AM 70.0 °F - 69.1 °F 97% 29.98 in 0.5 mi NNW 4.6 mph - N/A Fog Fog
9:12 AM 69.8 °F - 69.8 °F 100% 29.99 in 1.2 mi NW 5.8 mph - N/A   Overcast
9:32 AM 69.8 °F - 69.8 °F 100% 29.99 in 2.0 mi WNW 6.9 mph - N/A   Overcast
9:53 AM 69.1 °F - 69.1 °F 100% 29.99 in 3.0 mi NW 8.1 mph - N/A   Overcast
10:44 AM 73.4 °F - 69.8 °F 88% 29.99 in 10.0 mi NW 8.1 mph - N/A   Overcast
10:53 AM 75.0 °F - 70.0 °F 84% 29.98 in 10.0 mi North 5.8 mph - N/A   Overcast
11:10 AM 75.2 °F - 69.8 °F 83% 29.99 in 10.0 mi North 6.9 mph - N/A   Scattered Clouds
11:53 AM 79.0 °F - 70.0 °F 74% 29.98 in 10.0 mi NW 4.6 mph - N/A   Scattered Clouds
12:53 PM 80.1 °F 82.3 °F 66.9 °F 64% 29.98 in 10.0 mi Calm Calm - N/A   Clear
1:27 PM 78.8 °F - 71.6 °F 78% 29.98 in 10.0 mi South 8.1 mph - N/A   Mostly Cloudy
1:53 PM 78.1 °F - 71.1 °F 79% 29.97 in 10.0 mi South 9.2 mph - N/A   Overcast
2:28 PM 75.2 °F - 69.8 °F 83% 29.98 in 10.0 mi South 9.2 mph - N/A   Scattered Clouds
2:53 PM 77.0 °F - 68.0 °F 74% 29.98 in 10.0 mi Variable 6.9 mph - N/A   Partly Cloudy
3:53 PM 73.9 °F - 68.0 °F 82% 29.99 in 10.0 mi South 8.1 mph - N/A   Clear
4:53 PM 73.9 °F - 69.1 °F 85% 29.98 in 10.0 mi South 6.9 mph - N/A   Clear
5:53 PM 71.1 °F - 68.0 °F 90% 29.97 in 10.0 mi South 9.2 mph - N/A   Clear
6:53 PM 72.0 °F - 68.0 °F 87% 29.99 in 10.0 mi SSW 5.8 mph - N/A   Clear
7:08 PM 71.6 °F - 69.8 °F 94% 30.00 in 10.0 mi Variable 5.8 mph - N/A   Partly Cloudy
7:53 PM 71.1 °F - 66.9 °F 87% 30.00 in 10.0 mi SSW 3.5 mph - N/A   Mostly Cloudy
8:53 PM 71.1 °F - 66.9 °F 87% 30.00 in 7.0 mi Calm Calm - N/A   Mostly Cloudy
9:51 PM 69.8 °F - 68.0 °F 94% 30.02 in 9.0 mi South 3.5 mph - N/A   Partly Cloudy
9:53 PM 70.0 °F - 68.0 °F 93% 30.01 in 9.0 mi South 3.5 mph - N/A   Partly Cloudy
10:53 PM 69.1 °F - 68.0 °F 96% 30.00 in 4.0 mi ESE 4.6 mph - N/A   Partly Cloudy
11:22 PM 69.8 °F - 69.8 °F 100% 30.01 in 3.0 mi SSE 4.6 mph - N/A   Mostly Cloudy
11:53 PM 69.1 °F - 69.1 °F 100% 30.01 in 4.0 mi SE 4.6 mph - N/A   Overcast